Location: Ottawa
(45.4167°N, 75.7000°W)
Time: 13:20:52
(UTC-04:00)

OTV 5 (USA 277) - Pass Details

Date: 15 October 2017
Orbit: 404 x 417 km, 43.0° (Epoch: 07 September)

Event Time Altitude Azimuth Distance (km) Brightness Sun altitude
Rises 18:42:06 0° 248° (WSW) 2,349 ? -5.2°
Reaches altitude 10° 18:44:15 10° 242° (WSW) 1,489 ? -5.6°
Maximum altitude 18:47:29 46° 168° (SSE) 573 ? -6.1°
Drops below altitude 10° 18:50:44 10° 94° (E) 1,491 ? -6.7°
Enters shadow 18:51:00 - 93° (E) 1,600 ? -6.7°
